GW0234 Weather Reports


Display with metric or nautical units.
time (UTC)temp
F
wind
direction
speed
MPH
gust
MPH
rain 1hr
in
rain 24hr
in
rain mn
in
humidity
%
barometer
mb
20260505101557 60 24 4.0 11.0 0.01 0.01 0.01 71 1005.3
20260505100057 60 12 4.0 10.0 0.01 0.01 0.01 72 1005.2
20260505094555 60 345 3.0 10.0 0.01 0.01 0.01 72 1005.0
20260505093058 61 0 3.0 11.0 0.01 0.01 0.01 71 1004.9
20260505091558 62 360 5.0 13.0 0.00 0.00 0.00 68 1004.8
20260505090101 62 59 5.0 11.0 0.00 0.00 0.00 68 1005.0
20260505084600 62 319 2.0 10.0 0.00 0.00 0.00 68 1004.8
20260505083108 62 329 3.0 12.0 0.00 0.00 0.00 67 1004.8
20260505081558 62 5 2.0 14.0 0.00 0.00 0.00 67 1004.9
20260505080057 62 340 7.0 15.0 0.00 0.00 0.00 67 1004.8
20260505074556 62 317 3.0 12.0 0.00 0.00 0.00 67 1004.6
20260505073056 62 340 4.0 11.0 0.00 0.00 0.00 67 1004.4
20260505071557 62 329 4.0 10.0 0.00 0.00 0.00 67 1004.2
20260505070058 63 38 5.0 13.0 0.00 0.00 0.00 67 1004.3
20260505064601 63 360 5.0 12.0 0.00 0.00 0.00 67 1004.3
20260505063056 63 30 3.0 10.0 0.00 0.00 0.00 67 1004.5
20260505061557 62 11 5.0 10.0 0.00 0.00 0.00 66 1004.7
20260505054602 62 340 2.0 13.0 0.00 0.00 0.00 67 1005.1
20260505053110 62 360 2.0 8.0 0.00 0.00 0.00 67 1005.1
20260505051555 62 347 3.0 10.0 0.00 0.00 0.00 66 1005.3
20260505041612 61 348 1.0 5.0 0.00 0.00 0.00 68 1005.4
20260505040059 61 355 3.0 8.0 0.00 0.00 0.00 67 1005.3
20260505034558 61 344 2.0 5.0 0.00 0.00 0.00 67 1005.4
20260505033056 62 335 3.0 8.0 0.00 0.00 0.00 66 1005.5
20260505031606 62 0 3.0 9.0 0.00 0.00 0.00 66 1005.6
20260505030058 63 344 2.0 9.0 0.00 0.00 0.00 64 1005.7
20260505024559 64 5 2.0 13.0 0.00 0.00 0.00 63 1005.8
20260505023103 64 325 3.0 14.0 0.00 0.00 0.00 63 1005.8
20260505021558 64 342 5.0 12.0 0.00 0.00 0.00 63 1005.8
20260505020057 64 327 3.0 9.0 0.00 0.00 0.00 64 1005.8
20260505014557 64 34 4.0 11.0 0.00 0.00 0.00 64 1005.5
20260505013101 64 46 2.0 11.0 0.00 0.00 0.00 64 1005.4
20260505011559 64 338 3.0 8.0 0.00 0.00 0.00 64 1005.1
20260505010056 65 329 2.0 10.0 0.00 0.00 0.00 63 1004.8
20260505004558 65 330 3.0 10.0 0.00 0.00 0.00 62 1004.6
20260505003057 66 19 3.0 9.0 0.00 0.00 0.00 60 1004.5
20260505001558 67 13 5.0 13.0 0.00 0.00 0.00 59 1004.4
20260505000106 67 5 6.0 15.0 0.00 0.00 0.00 58 1004.2
20260504234632 68 343 6.0 12.0 0.00 0.00 0.00 57 1004.5
20260504233054 68 319 4.0 15.0 0.00 0.00 0.00 56 1004.6
20260504231606 68 4.0 15.0 0.00 0.00 0.00 55 1004.7
20260504230100 68 5 3.0 20.0 0.00 0.00 0.00 55 1004.8
20260504224600 69 333 5.0 14.0 0.00 0.00 0.00 53 1004.9
20260504223100 69 5 4.0 18.0 0.00 0.00 0.00 53 1004.9
20260504221609 70 360 4.0 13.0 0.00 0.00 0.00 50 1004.8
20260504220058 71 327 3.0 14.0 0.00 0.00 0.00 49 1004.9
20260504214559 72 26 3.0 11.0 0.00 0.00 0.00 46 1004.8
20260504213059 71 360 4.0 15.0 0.00 0.00 0.00 48 1004.6
20260504211558 71 13 8.0 16.0 0.00 0.00 0.00 47 1004.7
20260504210110 72 334 4.0 16.0 0.00 0.00 0.00 47 1004.3
20260504204605 72 33 6.0 16.0 0.00 0.00 0.00 48 1004.6
20260504203104 72 11 6.0 15.0 0.00 0.00 0.00 49 1004.7
20260504201611 71 11 6.0 20.0 0.00 0.00 0.00 50 1004.8
20260504200100 71 18 4.0 16.0 0.00 0.00 0.00 51 1005.0
20260504194608 71 5 9.0 18.0 0.00 0.00 0.00 52 1005.2
20260504193058 70 123 7.0 17.0 0.00 0.00 0.00 51 1005.5
20260504191558 70 5 8.0 17.0 0.00 0.00 0.00 51 1005.5
20260504190125 70 12 5.0 15.0 0.00 0.00 0.00 50 1005.7
20260504184559 68 346 8.0 19.0 0.00 0.00 0.00 50 1006.0
20260504183058 70 40 5.0 15.0 0.00 0.00 0.00 49 1006.1
20260504181600 70 15 4.0 13.0 0.00 0.00 0.00 47 1006.1
20260504180155 69 38 5.0 16.0 0.00 0.00 0.00 49 1006.2
20260504174556 69 93 6.0 14.0 0.00 0.00 0.00 49 1006.6
20260504173120 68 22 3.0 11.0 0.00 0.00 0.00 49 1006.7
20260504171558 68 22 8.0 18.0 0.00 0.00 0.00 51 1006.7
20260504140115 60 360 3.0 10.0 0.00 0.00 0.00 56 1008.3
20260504120114 51 15 4.0 9.0 0.00 0.00 0.00 61 1008.5